EXS9LD EGNM-LEIB

Flight info

Callsign EXS9LD
Flight time 2h 42m
Altitude 37000
Route POL DCT MCT DCT LISTO P18 STAFA L8 HON UN859 SOPIL DCT BALAN DCT EVPOK DCT NARAK DCT GAI DCT LOMRA DCT ROCAN DCT PUMAL N859 BCN Z174 CORDA
Aircraft B738/M-SDE2E3FGHIRWXY/LB1

Departure

Time 2026-05-01 07:43
Airport Leeds Bradford Airport (EGNM)

Arrival

Time 2026-05-01 10:25
Airport Ibiza Airport (LEIB)
Time Latitude Longitude Altitude Speed Heading
2026-05-01 07:23 53.86876 -1.65548 664 ft 0 kts
2026-05-01 07:33 53.86872 -1.65549 664 ft 3 kts
2026-05-01 07:33 53.86849 -1.65549 660 ft 2 kts
2026-05-01 07:33 53.86815 -1.65522 659 ft 2 kts 271°
2026-05-01 07:34 53.86815 -1.65558 660 ft 4 kts 271°
2026-05-01 07:34 53.86816 -1.65600 663 ft 0 kts 271°
2026-05-01 07:37 53.86816 -1.65615 663 ft 2 kts 270°
2026-05-01 07:37 53.86816 -1.65652 663 ft 4 kts 271°
2026-05-01 07:38 53.86816 -1.65715 664 ft 7 kts 268°
2026-05-01 07:38 53.86812 -1.65816 662 ft 9 kts 269°
2026-05-01 07:38 53.86814 -1.66024 665 ft 9 kts 270°
2026-05-01 07:39 53.86833 -1.66113 664 ft 8 kts 311°
2026-05-01 07:39 53.86882 -1.66191 666 ft 11 kts 319°
2026-05-01 07:39 53.86985 -1.66407 671 ft 12 kts 299°
2026-05-01 07:40 53.86980 -1.66533 672 ft 12 kts 230°
2026-05-01 07:40 53.86976 -1.66652 670 ft 12 kts 317°
2026-05-01 07:40 53.87036 -1.66743 677 ft 11 kts 318°
2026-05-01 07:40 53.87101 -1.66841 680 ft 14 kts 318°
2026-05-01 07:41 53.87173 -1.66953 685 ft 14 kts 319°
2026-05-01 07:41 53.87261 -1.66995 688 ft 13 kts
2026-05-01 07:41 53.87402 -1.67087 684 ft 12 kts 261°
2026-05-01 07:42 53.87347 -1.67195 687 ft 12 kts 200°
2026-05-01 07:42 53.87274 -1.67109 686 ft 17 kts 138°
2026-05-01 07:42 53.87024 -1.66722 676 ft 86 kts 137°
2026-05-01 07:42 53.86408 -1.65774 672 ft 149 kts 137°
2026-05-01 07:43 53.85554 -1.64499 1080 ft 168 kts 139°
2026-05-01 07:43 53.84669 -1.63205 1973 ft 168 kts 141°
2026-05-01 07:43 53.82678 -1.60436 2870 ft 206 kts 157°
2026-05-01 07:44 53.79877 -1.61226 3824 ft 235 kts 219°
2026-05-01 07:44 53.78703 -1.66699 5085 ft 263 kts 259°
2026-05-01 07:45 53.78455 -1.69780 5927 ft 266 kts 259°
2026-05-01 07:45 53.78192 -1.72848 6683 ft 269 kts 258°
2026-05-01 07:45 53.77901 -1.75975 7046 ft 267 kts 258°
2026-05-01 07:45 53.77591 -1.79114 7173 ft 275 kts 257°
2026-05-01 07:46 53.77268 -1.82312 7205 ft 276 kts 257°
2026-05-01 07:46 53.76943 -1.85521 7670 ft 278 kts 257°
2026-05-01 07:46 53.76288 -1.91950 9368 ft 279 kts 257°
2026-05-01 07:47 53.75936 -1.95202 10109 ft 283 kts 252°
2026-05-01 07:47 53.74990 -1.98085 10573 ft 289 kts 222°
2026-05-01 07:47 53.73212 -1.99813 10749 ft 308 kts 193°
2026-05-01 07:47 53.71034 -2.00459 10969 ft 327 kts 188°
2026-05-01 07:48 53.66441 -2.01680 12290 ft 336 kts 188°
2026-05-01 07:48 53.64129 -2.02305 13103 ft 336 kts 188°
2026-05-01 07:48 53.61815 -2.02943 13878 ft 338 kts 188°
2026-05-01 07:49 53.59490 -2.03594 14538 ft 340 kts 188°
2026-05-01 07:49 53.54789 -2.04926 15849 ft 345 kts 188°
2026-05-01 07:49 53.52416 -2.05602 16485 ft 348 kts 188°
2026-05-01 07:50 53.50020 -2.06286 17105 ft 350 kts 188°
2026-05-01 07:50 53.45168 -2.07671 18327 ft 357 kts 189°
2026-05-01 07:50 53.42700 -2.08375 18857 ft 360 kts 189°
2026-05-01 07:51 53.40220 -2.09081 19367 ft 363 kts 189°
2026-05-01 07:51 53.37719 -2.09793 19871 ft 367 kts 189°
2026-05-01 07:51 53.35190 -2.10512 20369 ft 370 kts 189°
2026-05-01 07:52 53.30073 -2.11964 21346 ft 376 kts 189°
2026-05-01 07:52 53.27482 -2.12615 21807 ft 379 kts 183°
2026-05-01 07:52 53.24855 -2.12170 22242 ft 383 kts 166°
2026-05-01 07:53 53.19772 -2.09248 23187 ft 390 kts 160°
2026-05-01 07:53 53.17225 -2.07629 23612 ft 394 kts 160°
2026-05-01 07:53 53.14655 -2.05985 24004 ft 397 kts 160°
2026-05-01 07:53 53.12075 -2.04328 24388 ft 399 kts 160°
2026-05-01 07:54 53.06866 -2.00986 25180 ft 403 kts 160°
2026-05-01 07:55 52.98936 -1.95920 26214 ft 411 kts 160°
2026-05-01 07:55 52.93571 -1.92517 26895 ft 416 kts 160°
2026-05-01 07:56 52.85390 -1.87361 27858 ft 423 kts 160°
2026-05-01 07:56 52.79901 -1.83914 28477 ft 427 kts 160°
2026-05-01 07:57 52.77111 -1.82164 28776 ft 430 kts 160°
2026-05-01 07:57 52.71497 -1.78651 29387 ft 433 kts 160°
2026-05-01 07:58 52.65848 -1.75126 30029 ft 435 kts 160°
2026-05-01 07:58 52.60204 -1.71609 30779 ft 432 kts 160°
2026-05-01 07:59 52.54588 -1.68115 31384 ft 432 kts 160°
2026-05-01 07:59 52.48974 -1.64631 32029 ft 430 kts 160°
2026-05-01 08:00 52.37955 -1.57118 33260 ft 428 kts 156°
2026-05-01 08:01 52.29837 -1.51069 34118 ft 427 kts 157°
2026-05-01 08:01 52.27124 -1.49084 34374 ft 427 kts 157°
2026-05-01 08:01 52.24413 -1.47114 34606 ft 426 kts 157°
2026-05-01 08:02 52.19039 -1.43233 35209 ft 421 kts 157°
2026-05-01 08:02 52.16352 -1.41300 35315 ft 424 kts 157°
2026-05-01 08:03 52.10947 -1.37420 35721 ft 424 kts 157°
2026-05-01 08:03 52.08251 -1.35488 35934 ft 423 kts 157°
2026-05-01 08:03 52.02886 -1.31651 36232 ft 425 kts 157°
2026-05-01 08:04 51.97470 -1.27787 36582 ft 425 kts 157°
2026-05-01 08:04 51.92049 -1.23930 36942 ft 425 kts 157°
2026-05-01 08:05 51.86623 -1.20078 37178 ft 428 kts 157°
2026-05-01 08:05 51.83893 -1.18145 37175 ft 429 kts 157°
2026-05-01 08:06 51.75733 -1.12380 37174 ft 424 kts 157°
2026-05-01 08:07 51.64985 -1.04821 37185 ft 419 kts 157°
2026-05-01 08:08 51.56968 -0.99209 37191 ft 419 kts 157°
2026-05-01 08:09 51.46220 -0.91720 37201 ft 423 kts 157°
2026-05-01 08:09 51.40811 -0.87965 37198 ft 424 kts 157°
2026-05-01 08:10 51.29925 -0.80438 37184 ft 427 kts 157°
2026-05-01 08:11 51.18992 -0.72916 37183 ft 428 kts 157°
2026-05-01 08:12 51.10789 -0.67299 37189 ft 427 kts 158°
2026-05-01 08:13 51.03528 -0.62345 37189 ft 426 kts 158°
2026-05-01 08:13 50.95366 -0.56796 37192 ft 425 kts 158°
2026-05-01 08:14 50.89936 -0.53116 37186 ft 424 kts 158°
2026-05-01 08:14 50.84517 -0.49453 37182 ft 423 kts 158°
2026-05-01 08:15 50.76399 -0.43983 37185 ft 423 kts 158°
2026-05-01 08:16 50.70988 -0.40349 37188 ft 423 kts 158°
2026-05-01 08:16 50.65571 -0.36720 37191 ft 423 kts 158°
2026-05-01 08:17 50.60143 -0.33092 37196 ft 424 kts 158°
2026-05-01 08:17 50.54701 -0.29464 37203 ft 425 kts 158°
2026-05-01 08:18 50.49245 -0.25837 37200 ft 426 kts 158°
2026-05-01 08:19 50.38279 -0.18572 37198 ft 429 kts 158°
2026-05-01 08:19 50.32777 -0.14940 37199 ft 430 kts 158°
2026-05-01 08:20 50.27260 -0.11308 37202 ft 430 kts 158°
2026-05-01 08:20 50.21737 -0.07681 37201 ft 431 kts 158°
2026-05-01 08:21 50.16208 -0.04058 37197 ft 431 kts 158°
2026-05-01 08:21 50.10680 -0.00451 37198 ft 430 kts 159°
2026-05-01 08:22 50.04957 0.02176 37208 ft 429 kts 166°
2026-05-01 08:22 49.99162 0.04334 37206 ft 428 kts 166°
2026-05-01 08:23 49.93385 0.06532 37201 ft 427 kts 166°
2026-05-01 08:23 49.87632 0.08771 37206 ft 426 kts 166°
2026-05-01 08:24 49.81893 0.11014 37205 ft 425 kts 166°
2026-05-01 08:24 49.76200 0.13232 37206 ft 425 kts 166°
2026-05-01 08:25 49.70468 0.15458 37208 ft 424 kts 166°
2026-05-01 08:25 49.64747 0.17711 37215 ft 425 kts 165°
2026-05-01 08:26 49.59029 0.20040 37212 ft 426 kts 165°
2026-05-01 08:26 49.53297 0.22372 37215 ft 426 kts 165°
2026-05-01 08:27 49.47554 0.24692 37205 ft 427 kts 165°
2026-05-01 08:27 49.41793 0.27010 37219 ft 428 kts 165°
2026-05-01 08:28 49.36014 0.29330 37210 ft 430 kts 165°
2026-05-01 08:28 49.30259 0.31639 37216 ft 430 kts 165°
2026-05-01 08:29 49.24436 0.34072 37217 ft 431 kts 164°
2026-05-01 08:29 49.18643 0.36526 37218 ft 432 kts 164°
2026-05-01 08:30 49.12847 0.38965 37218 ft 432 kts 164°
2026-05-01 08:30 49.07082 0.41378 37215 ft 432 kts 164°
2026-05-01 08:31 49.01282 0.43797 37210 ft 432 kts 164°
2026-05-01 08:31 48.95489 0.46208 37222 ft 431 kts 164°
2026-05-01 08:32 48.89696 0.48613 37209 ft 431 kts 164°
2026-05-01 08:32 48.83910 0.51011 37213 ft 430 kts 164°
2026-05-01 08:33 48.78134 0.53393 37215 ft 430 kts 165°
2026-05-01 08:33 48.72351 0.55667 37215 ft 429 kts 165°
2026-05-01 08:34 48.66574 0.57906 37216 ft 428 kts 165°
2026-05-01 08:34 48.60800 0.60152 37210 ft 428 kts 165°
2026-05-01 08:35 48.55028 0.62400 37214 ft 428 kts 165°
2026-05-01 08:35 48.49258 0.64669 37217 ft 428 kts 164°
2026-05-01 08:36 48.43501 0.67019 37221 ft 429 kts 164°
2026-05-01 08:36 48.37729 0.69374 37218 ft 430 kts 164°
2026-05-01 08:37 48.31943 0.71718 37216 ft 431 kts 164°
2026-05-01 08:37 48.26140 0.74060 37218 ft 432 kts 164°
2026-05-01 08:38 48.20365 0.76358 37217 ft 433 kts 165°
2026-05-01 08:38 48.14524 0.78650 37219 ft 434 kts 165°
2026-05-01 08:39 48.08680 0.80941 37214 ft 435 kts 165°
2026-05-01 08:39 48.02824 0.83237 37217 ft 436 kts 165°
2026-05-01 08:40 47.94013 0.86681 37234 ft 437 kts 165°
2026-05-01 08:40 47.88129 0.88976 37218 ft 437 kts 165°
2026-05-01 08:41 47.82251 0.91261 37218 ft 436 kts 165°
2026-05-01 08:41 47.76387 0.93530 37221 ft 435 kts 165°
2026-05-01 08:42 47.70531 0.95791 37230 ft 434 kts 165°
2026-05-01 08:42 47.64685 0.98045 37228 ft 434 kts 165°
2026-05-01 08:43 47.58850 1.00289 37237 ft 433 kts 165°
2026-05-01 08:43 47.53011 1.02531 37236 ft 433 kts 165°
2026-05-01 08:44 47.47183 1.04762 37238 ft 433 kts 165°
2026-05-01 08:44 47.41275 1.06470 37228 ft 434 kts 178°
2026-05-01 08:45 47.35242 1.06335 37237 ft 434 kts 181°
2026-05-01 08:45 47.29231 1.06116 37241 ft 436 kts 181°
2026-05-01 08:46 47.23145 1.05953 37251 ft 438 kts 181°
2026-05-01 08:46 47.17039 1.05818 37237 ft 440 kts 181°
2026-05-01 08:47 47.10900 1.05684 37246 ft 442 kts 181°
2026-05-01 08:47 47.04734 1.05547 37251 ft 443 kts 181°
2026-05-01 08:48 46.98551 1.05363 37242 ft 445 kts 182°
2026-05-01 08:48 46.92357 1.05077 37244 ft 446 kts 182°
2026-05-01 08:49 46.86149 1.04790 37254 ft 447 kts 182°
2026-05-01 08:49 46.79946 1.04517 37252 ft 450 kts 182°
2026-05-01 08:50 46.73697 1.04248 37248 ft 448 kts 182°
2026-05-01 08:50 46.67477 1.03981 37239 ft 446 kts 182°
2026-05-01 08:51 46.61294 1.03715 37231 ft 443 kts 182°
2026-05-01 08:51 46.55149 1.03452 37235 ft 441 kts 183°
2026-05-01 08:52 46.49034 1.03978 37236 ft 443 kts 169°
2026-05-01 08:52 46.43035 1.06030 37241 ft 443 kts 167°
2026-05-01 08:53 46.37038 1.08129 37244 ft 443 kts 168°
2026-05-01 08:53 46.31028 1.10172 37240 ft 444 kts 168°
2026-05-01 08:54 46.25036 1.12172 37243 ft 446 kts 168°
2026-05-01 08:54 46.18970 1.14183 37249 ft 448 kts 168°
2026-05-01 08:55 46.12869 1.16201 37247 ft 451 kts 169°
2026-05-01 08:55 46.06694 1.18241 37262 ft 453 kts 169°
2026-05-01 08:56 46.00588 1.20253 37267 ft 454 kts 169°
2026-05-01 08:56 45.94432 1.22279 37260 ft 453 kts 169°
2026-05-01 08:57 45.88291 1.24295 37263 ft 452 kts 169°
2026-05-01 08:57 45.83154 1.25977 37258 ft 451 kts 169°
2026-05-01 08:58 45.77048 1.27973 37269 ft 449 kts 169°
2026-05-01 08:58 45.71017 1.29939 37256 ft 447 kts 169°
2026-05-01 08:59 45.64970 1.31907 37241 ft 445 kts 169°
2026-05-01 08:59 45.58940 1.33864 37243 ft 444 kts 169°
2026-05-01 09:00 45.52920 1.35815 37240 ft 443 kts 169°
2026-05-01 09:00 45.46923 1.37753 37245 ft 442 kts 169°
2026-05-01 09:01 45.40923 1.39688 37252 ft 442 kts 169°
2026-05-01 09:01 45.34920 1.41619 37243 ft 442 kts 169°
2026-05-01 09:02 45.28910 1.43550 37249 ft 443 kts 169°
2026-05-01 09:02 45.22885 1.45482 37237 ft 444 kts 169°
2026-05-01 09:03 45.16845 1.47414 37237 ft 445 kts 169°
2026-05-01 09:03 45.10800 1.49344 37238 ft 446 kts 169°
2026-05-01 09:04 45.04744 1.51273 37244 ft 446 kts 169°
2026-05-01 09:04 44.98675 1.53202 37244 ft 447 kts 169°
2026-05-01 09:05 44.92614 1.55124 37245 ft 446 kts 169°
2026-05-01 09:05 44.86598 1.57028 37245 ft 446 kts 169°
2026-05-01 09:06 44.80556 1.58936 37238 ft 444 kts 169°
2026-05-01 09:06 44.74527 1.60836 37234 ft 444 kts 169°
2026-05-01 09:07 44.68508 1.62729 37239 ft 442 kts 169°
2026-05-01 09:07 44.62505 1.64612 37239 ft 442 kts 169°
2026-05-01 09:08 44.56513 1.66489 37233 ft 441 kts 169°
2026-05-01 09:08 44.50532 1.68358 37236 ft 440 kts 169°
2026-05-01 09:09 44.44560 1.70220 37248 ft 439 kts 169°
2026-05-01 09:09 44.38596 1.72076 37237 ft 439 kts 169°
2026-05-01 09:10 44.32636 1.73927 37229 ft 439 kts 169°
2026-05-01 09:10 44.26660 1.75636 37224 ft 438 kts 172°
2026-05-01 09:11 44.20638 1.76930 37236 ft 437 kts 173°
2026-05-01 09:11 44.14664 1.78184 37223 ft 437 kts 173°
2026-05-01 09:12 44.08651 1.79491 37236 ft 437 kts 173°
2026-05-01 09:12 44.02642 1.80813 37233 ft 437 kts 173°
2026-05-01 09:13 43.96630 1.82131 37231 ft 437 kts 173°
2026-05-01 09:13 43.90593 1.83048 37229 ft 436 kts 178°
2026-05-01 09:14 43.84536 1.83552 37226 ft 436 kts 178°
2026-05-01 09:14 43.78488 1.84065 37227 ft 435 kts 178°
2026-05-01 09:15 43.72448 1.84630 37215 ft 435 kts 177°
2026-05-01 09:15 43.66413 1.85215 37222 ft 435 kts 177°
2026-05-01 09:16 43.60378 1.85800 37206 ft 434 kts 177°
2026-05-01 09:17 43.51343 1.86673 37216 ft 434 kts 177°
2026-05-01 09:17 43.42319 1.87540 37214 ft 433 kts 177°
2026-05-01 09:18 43.33308 1.88405 37220 ft 432 kts 178°
2026-05-01 09:19 43.24317 1.89269 37220 ft 432 kts 177°
2026-05-01 09:20 43.15328 1.90133 37230 ft 431 kts 177°
2026-05-01 09:21 43.03377 1.91276 37219 ft 432 kts 178°
2026-05-01 09:21 42.94386 1.92132 37210 ft 433 kts 178°
2026-05-01 09:22 42.82344 1.93276 37224 ft 435 kts 178°
2026-05-01 09:23 42.73307 1.94132 37224 ft 436 kts 178°
2026-05-01 09:24 42.64238 1.95188 37227 ft 437 kts 174°
2026-05-01 09:25 42.52223 1.97703 37235 ft 437 kts 173°
2026-05-01 09:26 42.43196 1.99511 37236 ft 437 kts 173°
2026-05-01 09:26 42.34167 2.01147 37251 ft 435 kts 177°
2026-05-01 09:27 42.25110 2.01974 37253 ft 434 kts 178°
2026-05-01 09:28 42.19090 2.02506 37247 ft 434 kts 178°
2026-05-01 09:28 42.13078 2.03070 37249 ft 432 kts 178°
2026-05-01 09:29 42.04099 2.03932 37245 ft 430 kts 178°
2026-05-01 09:30 41.95193 2.04784 37249 ft 429 kts 178°
2026-05-01 09:30 41.86275 2.05633 37249 ft 428 kts 178°
2026-05-01 09:31 41.80334 2.06197 37236 ft 428 kts 178°
2026-05-01 09:32 41.71441 2.07041 37229 ft 427 kts 178°
2026-05-01 09:32 41.62553 2.07871 37237 ft 427 kts 178°
2026-05-01 09:33 41.56631 2.08416 37239 ft 427 kts 178°
2026-05-01 09:34 41.47740 2.09235 37237 ft 427 kts 178°
2026-05-01 09:34 41.38855 2.10052 37241 ft 427 kts 178°
2026-05-01 09:35 41.29966 2.10887 37250 ft 427 kts 177°
2026-05-01 09:36 41.24062 2.11810 37238 ft 427 kts 175°
2026-05-01 09:36 41.18172 2.12859 37237 ft 427 kts 175°
2026-05-01 09:37 41.12282 2.13883 37240 ft 426 kts 175°
2026-05-01 09:37 41.03510 2.15360 37226 ft 425 kts 175°
2026-05-01 09:38 40.94709 2.16826 37232 ft 424 kts 175°
2026-05-01 09:39 40.85915 2.18288 37205 ft 424 kts 175°
2026-05-01 09:39 40.80051 2.19260 37219 ft 425 kts 175°
2026-05-01 09:40 40.71238 2.20719 37226 ft 426 kts 175°
2026-05-01 09:41 40.65342 2.21693 37217 ft 428 kts 175°
2026-05-01 09:41 40.56460 2.23158 37218 ft 430 kts 175°
2026-05-01 09:42 40.51524 2.23970 37208 ft 431 kts 175°
2026-05-01 09:43 40.38658 2.26223 37208 ft 433 kts 172°
2026-05-01 09:43 40.32752 2.27780 37200 ft 433 kts 171°
2026-05-01 09:44 40.24845 2.29915 37176 ft 431 kts 171°
2026-05-01 09:44 40.21957 2.30673 36850 ft 427 kts 171°
2026-05-01 09:45 40.19078 2.31421 36566 ft 419 kts 171°
2026-05-01 09:45 40.13430 2.32876 35833 ft 411 kts 171°
2026-05-01 09:45 40.10630 2.33594 35449 ft 408 kts 171°
2026-05-01 09:46 40.07852 2.34306 35079 ft 405 kts 171°
2026-05-01 09:46 40.05094 2.35013 34712 ft 403 kts 171°
2026-05-01 09:46 40.02351 2.35715 34359 ft 400 kts 171°
2026-05-01 09:46 39.99625 2.36413 33936 ft 398 kts 171°
2026-05-01 09:47 39.96913 2.37107 33544 ft 396 kts 171°
2026-05-01 09:47 39.94223 2.37795 33165 ft 393 kts 171°
2026-05-01 09:47 39.91551 2.38478 32794 ft 390 kts 171°
2026-05-01 09:47 39.88895 2.39156 32436 ft 387 kts 171°
2026-05-01 09:48 39.86255 2.39830 32086 ft 385 kts 171°
2026-05-01 09:48 39.83641 2.40496 31740 ft 382 kts 171°
2026-05-01 09:48 39.81036 2.41160 31389 ft 380 kts 171°
2026-05-01 09:48 39.78449 2.41818 31055 ft 378 kts 171°
2026-05-01 09:49 39.75881 2.42464 30713 ft 375 kts 174°
2026-05-01 09:49 39.73310 2.42533 30361 ft 367 kts 190°
2026-05-01 09:49 39.70797 2.42093 30051 ft 363 kts 190°
2026-05-01 09:49 39.68293 2.41664 29658 ft 361 kts 189°
2026-05-01 09:50 39.65812 2.41258 29300 ft 358 kts 189°
2026-05-01 09:50 39.63351 2.40871 28965 ft 354 kts 189°
2026-05-01 09:50 39.60911 2.40496 28608 ft 352 kts 189°
2026-05-01 09:50 39.58490 2.40127 28273 ft 349 kts 189°
2026-05-01 09:51 39.56085 2.39731 27920 ft 346 kts 194°
2026-05-01 09:51 39.53873 2.38633 27617 ft 337 kts 213°
2026-05-01 09:51 39.51930 2.36966 27290 ft 334 kts 217°
2026-05-01 09:51 39.50050 2.35200 26954 ft 332 kts 218°
2026-05-01 09:52 39.48225 2.33451 26623 ft 330 kts 218°
2026-05-01 09:52 39.46381 2.31686 26299 ft 328 kts 218°
2026-05-01 09:52 39.44544 2.29941 25983 ft 327 kts 218°
2026-05-01 09:52 39.42703 2.28204 25675 ft 328 kts 217°
2026-05-01 09:53 39.40857 2.26472 25354 ft 329 kts 217°
2026-05-01 09:53 39.38980 2.24717 25046 ft 337 kts 217°
2026-05-01 09:53 39.37061 2.22927 24696 ft 342 kts 217°
2026-05-01 09:53 39.35128 2.21129 24355 ft 342 kts 217°
2026-05-01 09:54 39.33200 2.19339 24016 ft 340 kts 217°
2026-05-01 09:54 39.31281 2.17558 23659 ft 340 kts 217°
2026-05-01 09:54 39.29364 2.15781 23267 ft 338 kts 217°
2026-05-01 09:54 39.27457 2.14015 22916 ft 336 kts 217°
2026-05-01 09:55 39.25562 2.12261 22580 ft 334 kts 217°
2026-05-01 09:55 39.23678 2.10518 22243 ft 332 kts 217°
2026-05-01 09:55 39.21807 2.08789 21914 ft 330 kts 217°
2026-05-01 09:55 39.19951 2.07074 21589 ft 328 kts 217°
2026-05-01 09:56 39.18102 2.05367 21259 ft 326 kts 217°
2026-05-01 09:56 39.16263 2.03670 20945 ft 324 kts 217°
2026-05-01 09:56 39.14434 2.01983 20621 ft 322 kts 217°
2026-05-01 09:56 39.12613 2.00305 20252 ft 323 kts 217°
2026-05-01 09:57 39.10793 1.98628 19811 ft 320 kts 216°
2026-05-01 09:57 39.08982 1.96961 19287 ft 319 kts 216°
2026-05-01 09:57 39.07172 1.95297 18758 ft 319 kts 216°
2026-05-01 09:57 39.05374 1.93643 18269 ft 317 kts 216°
2026-05-01 09:58 39.03590 1.92004 17766 ft 314 kts 216°
2026-05-01 09:58 39.01819 1.90377 17240 ft 312 kts 215°
2026-05-01 09:58 39.00056 1.88761 16723 ft 310 kts 215°
2026-05-01 09:58 38.98370 1.87100 16211 ft 309 kts 224°
2026-05-01 09:59 38.97033 1.84888 15678 ft 310 kts 234°
2026-05-01 09:59 38.95868 1.82609 15171 ft 309 kts 236°
2026-05-01 09:59 38.94695 1.80295 14677 ft 309 kts 235°
2026-05-01 09:59 38.93519 1.77997 14217 ft 307 kts 235°
2026-05-01 10:00 38.92340 1.75711 13714 ft 306 kts 234°
2026-05-01 10:00 38.91164 1.73449 13250 ft 303 kts 234°
2026-05-01 10:00 38.89995 1.71211 12825 ft 300 kts 234°
2026-05-01 10:00 38.88840 1.69006 12395 ft 296 kts 234°
2026-05-01 10:01 38.87695 1.66822 11958 ft 293 kts 234°
2026-05-01 10:01 38.86560 1.64659 11513 ft 291 kts 234°
2026-05-01 10:01 38.85434 1.62519 11069 ft 289 kts 234°
2026-05-01 10:01 38.84314 1.60391 10650 ft 286 kts 234°
2026-05-01 10:02 38.83442 1.58116 10245 ft 285 kts 252°
2026-05-01 10:02 38.82940 1.55684 9878 ft 281 kts 253°
2026-05-01 10:02 38.82442 1.53259 9570 ft 280 kts 253°
2026-05-01 10:02 38.81930 1.50856 9299 ft 279 kts 253°
2026-05-01 10:03 38.81408 1.48464 9017 ft 278 kts 253°
2026-05-01 10:03 38.80882 1.46084 8741 ft 277 kts 253°
2026-05-01 10:03 38.80356 1.43715 8467 ft 275 kts 253°
2026-05-01 10:03 38.79667 1.41439 8206 ft 273 kts 242°
2026-05-01 10:04 38.78764 1.39307 7949 ft 271 kts 240°
2026-05-01 10:04 38.77841 1.37200 7682 ft 270 kts 240°
2026-05-01 10:04 38.76938 1.35097 7448 ft 268 kts 241°
2026-05-01 10:04 38.76055 1.32997 7227 ft 266 kts 242°
2026-05-01 10:05 38.75190 1.30923 7087 ft 261 kts 242°
2026-05-01 10:05 38.74349 1.28898 6960 ft 254 kts 242°
2026-05-01 10:05 38.73524 1.26911 6742 ft 253 kts 242°
2026-05-01 10:05 38.72698 1.24930 6500 ft 252 kts 242°
2026-05-01 10:06 38.71875 1.22955 6243 ft 251 kts 242°
2026-05-01 10:06 38.71055 1.20990 5992 ft 250 kts 242°
2026-05-01 10:06 38.70236 1.19029 5745 ft 249 kts 243°
2026-05-01 10:06 38.69424 1.17087 5538 ft 244 kts 243°
2026-05-01 10:07 38.68808 1.15115 5246 ft 237 kts 265°
2026-05-01 10:07 38.69057 1.13112 5028 ft 225 kts 298°
2026-05-01 10:07 38.69944 1.11588 4895 ft 211 kts 320°
2026-05-01 10:07 38.71132 1.10609 4781 ft 197 kts 333°
2026-05-01 10:08 38.73553 1.09348 4498 ft 187 kts
2026-05-01 10:08 38.74742 1.09928 4421 ft 185 kts 34°
2026-05-01 10:08 38.75775 1.10910 4329 ft 186 kts 36°
2026-05-01 10:09 38.76762 1.11991 4157 ft 191 kts 50°
2026-05-01 10:09 38.77435 1.13484 3868 ft 193 kts 61°
2026-05-01 10:09 38.78074 1.14989 3585 ft 190 kts 59°
2026-05-01 10:09 38.78703 1.16468 3337 ft 187 kts 60°
2026-05-01 10:10 38.79308 1.17924 3090 ft 183 kts 60°
2026-05-01 10:10 38.79895 1.19352 2849 ft 179 kts 60°
2026-05-01 10:10 38.81029 1.22114 2392 ft 172 kts 60°
2026-05-01 10:11 38.81585 1.23468 2162 ft 171 kts 60°
2026-05-01 10:11 38.82142 1.24822 1939 ft 172 kts 61°
2026-05-01 10:11 38.82699 1.26178 1701 ft 171 kts 61°
2026-05-01 10:11 38.83240 1.27496 1474 ft 162 kts 61°
2026-05-01 10:12 38.83742 1.28716 1266 ft 150 kts 61°
2026-05-01 10:12 38.84059 1.29485 1161 ft 146 kts 61°
2026-05-01 10:12 38.85170 1.32185 691 ft 146 kts 62°
2026-05-01 10:13 38.85645 1.33339 507 ft 147 kts 63°
2026-05-01 10:13 38.86123 1.34496 344 ft 144 kts 63°
2026-05-01 10:13 38.86581 1.35634 149 ft 142 kts 65°
2026-05-01 10:14 38.87541 1.38141 1068 ft 180 kts 64°
2026-05-01 10:14 38.88099 1.39574 1961 ft 180 kts 61°
2026-05-01 10:14 38.88689 1.41021 2372 ft 187 kts 65°
2026-05-01 10:14 38.88767 1.42659 2472 ft 191 kts 110°
2026-05-01 10:15 38.87838 1.43844 2556 ft 201 kts 160°
2026-05-01 10:15 38.86353 1.43885 2742 ft 227 kts 196°
2026-05-01 10:15 38.84951 1.42936 2853 ft 230 kts 215°
2026-05-01 10:15 38.83638 1.41747 2978 ft 231 kts 216°
2026-05-01 10:16 38.82328 1.40538 3012 ft 233 kts 217°
2026-05-01 10:16 38.81089 1.39167 3020 ft 238 kts 235°
2026-05-01 10:16 38.79426 1.35510 3022 ft 239 kts 242°
2026-05-01 10:17 38.78603 1.33670 3017 ft 237 kts 242°
2026-05-01 10:17 38.76958 1.30009 2984 ft 236 kts 242°
2026-05-01 10:17 38.76144 1.28189 3017 ft 234 kts 242°
2026-05-01 10:18 38.74528 1.24585 3021 ft 233 kts 242°
2026-05-01 10:18 38.73713 1.22771 3033 ft 237 kts 242°
2026-05-01 10:18 38.72894 1.20946 3050 ft 233 kts 242°
2026-05-01 10:19 38.72130 1.19201 3027 ft 216 kts 248°
2026-05-01 10:19 38.71938 1.17430 3022 ft 193 kts 286°
2026-05-01 10:19 38.72597 1.16020 3031 ft 184 kts 325°
2026-05-01 10:20 38.74856 1.14507 3026 ft 185 kts 336°
2026-05-01 10:20 38.76076 1.14077 3009 ft 183 kts
2026-05-01 10:20 38.77233 1.14653 3045 ft 181 kts 32°
2026-05-01 10:20 38.78247 1.15617 3020 ft 183 kts 47°
2026-05-01 10:21 38.78885 1.17008 3039 ft 178 kts 60°
2026-05-01 10:21 38.80060 1.19764 2781 ft 177 kts 60°
2026-05-01 10:21 38.80633 1.21149 2538 ft 175 kts 60°
2026-05-01 10:22 38.81737 1.23837 2095 ft 167 kts 60°
2026-05-01 10:22 38.82799 1.26421 1685 ft 154 kts 61°
2026-05-01 10:23 38.83282 1.27598 1456 ft 145 kts 61°
2026-05-01 10:23 38.84205 1.29839 1088 ft 143 kts 61°
2026-05-01 10:23 38.84671 1.30972 897 ft 144 kts 62°
2026-05-01 10:24 38.85611 1.33251 525 ft 145 kts 62°
2026-05-01 10:24 38.86562 1.35559 116 ft 148 kts 64°
2026-05-01 10:25 38.87394 1.37576 9 ft 80 kts 62°
2026-05-01 10:25 38.87657 1.38209 13 ft 18 kts 53°
2026-05-01 10:26 38.87769 1.38214 10 ft 14 kts 332°
2026-05-01 10:26 38.87805 1.38122 8 ft 13 kts 242°
2026-05-01 10:26 38.87721 1.37917 9 ft 13 kts 242°
2026-05-01 10:27 38.87641 1.37723 8 ft 12 kts 242°
2026-05-01 10:27 38.87555 1.37518 8 ft 16 kts 242°
2026-05-01 10:28 38.87503 1.37391 8 ft 16 kts 242°
2026-05-01 10:28 38.87424 1.37201 8 ft 11 kts 242°
2026-05-01 10:28 38.87424 1.37144 8 ft 7 kts 315°
2026-05-01 10:29 38.87490 1.37095 7 ft 3 kts 332°
2026-05-01 10:29 38.87494 1.37093 7 ft 0 kts 332°